"2009-11-25 00:00:00",1446046,6.238,259.8,5.7,1.025,8.09,101.3276,2.687,3.981,21.99,0,109.7,13.51,3.45,221.8
"2009-11-25 00:00:30",1446047,6.13,259.3,5.831,1.156,7.58,101.3395,2.717,3.935,21.79,0,109.7,13.51,3.48,221.3
"2009-11-25 00:01:00",1446048,5.009,253.3,6.381,1.084,5.375,101.3483,2.74,3.824,21.59,0,109.7,13.51,3.50,215.3
"2009-11-25 00:01:30",1446049,5.021,255.6,6.303,1.148,5.472,101.3568,2.761,3.817,21.53,0,109.7,13.51,3.52,217.6
"2009-11-25 00:02:00",1446050,5.926,259.8,5.105,1.167,7.63,101.3651,2.782,4.013,21.82,0,109.7,13.51,3.54,221.8
"2009-11-25 00:02:30",1446051,5.625,259.9,7.761,1.201,7.226,101.3696,2.794,4.023,21.79,0,109.7,13.51,3.56,221.9
"2009-11-25 00:03:00",1446052,6.111,264.1,7.185,1.002,8.06,101.3699,2.795,3.983,21.7,0,109.7,13.51,3.56,226.1
"2009-11-25 00:03:30",1446053,5.679,259.2,6.019,1.22,6.831,101.3745,2.806,3.993,21.59,0,109.7,13.51,3.57,221.2
"2009-11-25 00:04:00",1446054,5.087,256.4,7.705,1.081,5.499,101.3777,2.815,3.835,21.3,0,109.7,13.51,3.58,218.4
"2009-11-25 00:04:30",1446055,5.431,257.1,8.54,1.23,6.08,101.3913,2.849,3.927,21.23,0,109.7,13.51,3.61,219.1
"2009-11-25 00:05:00",1446056,6.005,263.8,6.365,1.196,7.714,101.4029,2.879,4.063,21.26,0,109.7,13.51,3.64,225.8
"2009-11-25 00:05:30",1446057,6.015,267,5.75,1.072,7.958,101.4139,2.907,4.039,21.21,0,109.7,13.51,3.67,229.0
"2009-11-25 00:06:00",1446058,5.861,269,7.133,1.265,7.527,101.4191,2.92,4.091,21.26,0,109.7,13.51,3.68,231.0
"2009-11-25 00:06:30",1446059,5.906,269.8,6.893,1.212,7.332,101.4205,2.924,4.099,21.13,0,109.7,13.51,3.69,231.8
"2009-11-25 00:07:00",1446060,4.183,259.8,2.224,0.127,4.223,101.4234,2.931,3.898,20.93,0,109.7,13.55,3.69,221.8
"2009-11-25 00:07:30",1446061,5.088,265.7,5.887,1.065,5.347,101.4316,2.952,3.988,21.02,0,109.7,13.51,3.71,227.7
"2009-11-25 00:08:00",1446062,6.412,274.7,5.623,1.082,7.833,101.4539,3.009,4.11,21.08,0,109.7,13.51,3.77,236.7
"2009-11-25 00:08:30",1446063,6.205,273.9,5.494,1.158,7.359,101.459,3.022,4.101,20.94,0,109.7,13.52,3.78,235.9
"2009-11-25 00:09:00",1446064,6.343,276.5,5.317,1.149,7.821,101.4596,3.024,4.141,20.82,0,109.7,13.52,3.79,238.5
"2009-11-25 00:09:30",1446065,5.665,268.8,6.912,1.252,6.589,101.4602,3.025,4.148,20.77,0,109.7,13.52,3.79,230.8
"2009-11-25 00:10:00",1446066,5.267,265.8,6.777,1.162,6.11,101.4771,3.068,4.057,20.61,0,109.7,13.52,3.83,227.8
"2009-11-25 00:10:30",1446067,4.942,262.9,5.69,1.133,5.071,101.4884,3.097,4.062,20.5,0,109.7,13.52,3.86,224.9
"2009-11-25 00:11:00",1446068,6.269,267.6,6.451,1.03,7.93,101.4935,3.11,4.25,20.56,0,109.7,13.52,3.87,229.6
"2009-11-25 00:11:30",1446069,6.068,269.3,7.179,1.177,7.837,101.4935,3.11,4.204,20.4,0,109.7,13.52,3.87,231.3
"2009-11-25 00:12:00",1446070,5.997,266.3,5.74,1.137,7.648,101.4947,3.113,4.311,20.39,0,109.7,13.52,3.88,228.3
"2009-11-25 00:12:30",1446071,6.183,266.6,6.609,1.029,7.643,101.508,3.147,4.228,20.28,0,109.7,13.52,3.91,228.6
"2009-11-25 00:13:00",1446072,4.402,255.8,2.075,0.265,4.368,101.5213,3.181,4.13,20.19,0,109.7,13.52,3.94,217.8
"2009-11-25 00:13:30",1446073,5.525,265,5.741,1.331,7.104,101.5275,3.197,4.333,20.35,0,109.7,13.52,3.96,227.0
"2009-11-25 00:14:00",1446074,5.618,260.9,5.797,1.257,6.914,101.5275,3.197,4.353,20.33,0,109.7,13.52,3.96,222.9
"2009-11-25 00:14:30",1446075,6.129,265,5.25,1.082,8.13,101.5275,3.197,4.353,20.33,0,109.7,13.52,3.96,227.0
"2009-11-25 00:15:00",1446076,5.826,264.1,5.911,1.225,7.554,101.53,3.203,4.303,20.27,0,109.7,13.52,3.97,226.1
"2009-11-25 00:15:30",1446077,5.761,263.9,7.795,1.136,7.376,101.5447,3.241,4.359,20.23,0,109.7,13.52,4.00,225.9
"2009-11-25 00:16:00",1446078,3.988,253.7,1.906,0.129,4.488,101.5564,3.271,4.261,20.06,0,109.7,13.56,4.03,215.7
"2009-11-25 00:16:30",1446079,4.657,255.2,4.887,1.107,5.442,101.5614,3.284,4.317,20.03,0,109.7,13.52,4.05,217.2
"2009-11-25 00:17:00",1446080,6.027,261.3,5.505,1.046,8,101.5614,3.284,4.419,20.03,0,109.7,13.52,4.05,223.3
"2009-11-25 00:17:30",1446081,5.454,255.2,6.745,1.264,7.391,101.5614,3.284,4.464,20.02,0,109.7,13.53,4.05,217.2
"2009-11-25 00:18:00",1446082,5.526,257.3,4.799,1.196,7.809,101.5614,3.284,4.483,20,0,109.7,13.53,4.05,219.3
"2009-11-25 00:18:30",1446083,4.836,252.4,6.123,1.229,6.471,101.5614,3.284,4.493,19.99,0,109.7,13.53,4.05,214.4
"2009-11-25 00:19:00",1446084,4.731,250.7,5.914,1.189,5.691,101.5614,3.284,4.278,19.67,0,109.7,13.53,4.05,212.7
"2009-11-25 00:19:30",1446085,4.268,250.9,7.242,0.997,5.813,101.5614,3.284,4.422,19.8,0,109.7,13.53,4.05,212.9
"2009-11-25 00:20:00",1446086,5.232,252.6,5.871,1.147,7.567,101.5614,3.284,4.516,19.9,0,109.7,13.53,4.05,214.6
"2009-11-25 00:20:30",1446087,5.278,256.2,4.728,1.248,8.3,101.5614,3.284,4.487,19.83,0,109.7,13.53,4.05,218.2
"2009-11-25 00:21:00",1446088,5.665,254.8,4.506,0.949,8.26,101.5614,3.284,4.534,19.87,0,109.7,13.53,4.05,216.8
"2009-11-25 00:21:30",1446089,4.921,255.7,6.383,1.148,7.388,101.5623,3.286,4.463,19.81,0,109.7,13.53,4.05,217.7
"2009-11-25 00:22:00",1446090,3.821,247.6,4.626,0.924,5.23,101.5629,3.287,4.443,19.79,0,109.7,13.53,4.05,209.6
"2009-11-25 00:22:30",1446091,3.844,247.4,5.658,0.945,5.193,101.5634,3.289,4.463,19.77,0,109.7,13.53,4.05,209.4
"2009-11-25 00:23:00",1446092,5.36,258.4,5.837,1.051,8.2,101.5637,3.289,4.524,19.81,0,109.7,13.53,4.05,220.4
"2009-11-25 00:23:30",1446093,5.428,255,5.422,1.038,8.49,101.5634,3.289,4.53,19.78,0,109.7,13.53,4.05,217.0
"2009-11-25 00:24:00",1446094,5.294,256.3,5.411,1.146,8.29,101.566,3.295,4.621,19.87,0,109.7,13.53,4.06,218.3
"2009-11-25 00:24:30",1446095,4.159,252.3,6.453,1.278,6.622,101.5643,3.291,4.541,19.78,0,109.7,13.53,4.05,214.3
"2009-11-25 00:25:00",1446096,3.905,251.7,6.514,1.044,5.368,101.5634,3.289,4.344,19.56,0,109.7,13.53,4.05,213.7
"2009-11-25 00:25:30",1446097,3.348,249.4,2.192,0.1,4.284,101.5671,3.298,4.373,19.57,0,109.7,13.57,4.06,211.4
"2009-11-25 00:26:00",1446098,4.967,256.3,6.939,1.154,7.888,101.5657,3.294,4.564,19.74,0,109.7,13.53,4.06,218.3
"2009-11-25 00:26:30",1446099,5.055,257.6,6.57,1.277,8,101.5654,3.294,4.572,19.71,0,109.7,13.53,4.06,219.6
"2009-11-25 00:27:00",1446100,5.309,258.9,6.265,1.078,8.01,101.5677,3.3,4.587,19.69,0,109.7,13.53,4.06,220.9
"2009-11-25 00:27:30",1446101,5.009,253.5,6.901,1.224,7.784,101.568,3.3,4.594,19.67,0,109.7,13.53,4.06,215.5
"2009-11-25 00:28:00",1446102,4.215,245.9,3.638,1.081,5.031,101.5695,3.304,4.443,19.49,0,109.7,13.53,4.07,207.9
"2009-11-25 00:28:30",1446103,3.963,242.7,4.334,0.662,4.904,101.5712,3.308,4.403,19.41,0,109.7,13.53,4.07,204.7
"2009-11-25 00:29:00",1446104,5.502,246.7,6.73,1.284,7.486,101.5721,3.311,4.574,19.53,0,109.7,13.53,4.07,208.7
"2009-11-25 00:29:30",1446105,5.444,247.4,6.481,1.284,7.482,101.5735,3.314,4.624,19.49,0,109.7,13.53,4.08,209.4
"2009-11-25 00:30:00",1446106,6.494,247.3,5.01,0.768,8.86,101.5715,3.309,4.613,19.45,0,109.7,13.53,4.07,209.3
"2009-11-25 00:30:30",1446107,6.011,246.6,6.325,1.119,7.951,101.5726,3.312,4.57,19.38,0,109.7,13.53,4.08,208.6
"2009-11-25 00:31:00",1446108,5.08,239.1,5.993,1.118,5.924,101.5729,3.313,4.501,19.12,0,109.7,13.53,4.08,201.1
"2009-11-25 00:31:30",1446109,5.704,241.4,5.656,1.323,6.533,101.5749,3.318,4.389,18.9,0,109.7,13.53,4.08,203.4
"2009-11-25 00:32:00",1446110,5.437,241.2,6.879,1.16,6.794,101.5744,3.317,4.581,19.12,0,109.7,13.53,4.08,203.2
"2009-11-25 00:32:30",1446111,6.063,246.1,7.022,1.167,8.27,101.5772,3.324,4.622,19.12,0,109.7,13.53,4.09,208.1
"2009-11-25 00:33:00",1446112,6.276,247.4,5.236,1.087,8.9,101.583,3.338,4.648,19.26,0,109.7,13.54,4.10,209.4
"2009-11-25 00:33:30",1446113,6,242.7,6.612,1.204,7.877,101.5832,3.339,4.589,19.1,0,109.7,13.54,4.10,204.7
"2009-11-25 00:34:00",1446114,5.393,240.6,6.634,1.278,6.506,101.5891,3.354,4.45,18.87,0,109.7,13.54,4.12,202.6
"2009-11-25 00:34:30",1446115,5.635,238.7,7.481,1.234,6.544,101.5957,3.371,4.472,18.91,0,109.7,13.54,4.13,200.7
"2009-11-25 00:35:00",1446116,5.677,244.1,6.723,1.239,7.49,101.5991,3.38,4.609,19.02,0,109.8,13.54,4.14,206.1
"2009-11-25 00:35:30",1446117,6.248,241.8,6.367,1.157,8.21,101.6064,3.398,4.631,19,0,109.7,13.54,4.16,203.8
"2009-11-25 00:36:00",1446118,6.54,241.4,4.775,1.055,8.81,101.611,3.41,4.693,18.72,0,109.7,13.54,4.17,203.4
"2009-11-25 00:36:30",1446119,6.038,238.9,6.214,1.178,7.753,101.6135,3.416,4.556,18.48,0,109.7,13.54,4.18,200.9
"2009-11-25 00:37:00",1446120,5.422,238.4,6.358,1.207,7.03,101.6155,3.422,4.592,18.57,0,109.7,13.54,4.19,200.4
"2009-11-25 00:37:30",1446121,5.184,235.9,6.378,1.159,6.728,101.6158,3.422,4.623,18.71,0,109.7,13.54,4.19,197.9
"2009-11-25 00:38:00",1446122,4.822,234.5,5.689,1.116,6.008,101.6161,3.423,4.543,18.78,0,109.7,13.54,4.19,196.5
"2009-11-25 00:38:30",1446123,6.168,243.1,5.718,1.103,8.57,101.6152,3.421,4.637,18.94,0,109.7,13.54,4.18,205.1
"2009-11-25 00:39:00",1446124,5.92,238.9,6.282,1.258,8.39,101.6175,3.427,4.672,18.99,0,109.7,13.54,4.19,200.9
"2009-11-25 00:39:30",1446125,5.764,238.1,6.643,1.257,7.852,101.6257,3.448,4.627,18.65,0,109.7,13.54,4.21,200.1
"2009-11-25 00:40:00",1446126,6.026,239,5.891,1.145,7.642,101.6285,3.455,4.619,18.68,0,109.7,13.54,4.22,201.0
"2009-11-25 00:40:30",1446127,5.266,234.5,6.253,1.113,6.602,101.6317,3.463,4.622,18.47,0,109.7,13.54,4.23,196.5
"2009-11-25 00:41:00",1446128,5.599,233.9,6.835,1.182,6.633,101.6416,3.488,4.476,18.24,0,109.7,13.54,4.25,195.9
"2009-11-25 00:41:30",1446129,5.883,236.3,6.609,1.255,8.17,101.6506,3.511,4.713,18.47,0,109.7,13.54,4.28,198.3
"2009-11-25 00:42:00",1446130,6.185,238.2,4.834,0.988,9,101.6546,3.521,4.716,18.5,0,109.7,13.54,4.29,200.2
"2009-11-25 00:42:30",1446131,5.659,235.3,6.882,1.195,7.57,101.6555,3.524,4.573,18.51,0,109.7,13.54,4.29,197.3
"2009-11-25 00:43:00",1446132,5.817,235.8,7.004,1.156,8.27,101.6535,3.518,4.735,18.46,0,109.7,13.53,4.28,197.8
"2009-11-25 00:43:30",1446133,4.791,231.4,5.914,1.207,6.804,101.6543,3.521,4.7,18.22,0,109.7,13.53,4.28,193.4
"2009-11-25 00:44:00",1446134,4.226,227.7,2.907,0.606,5.251,101.6535,3.518,4.551,18.44,0,109.7,13.53,4.28,189.7
"2009-11-25 00:44:30",1446135,5.818,234.4,6.263,1.205,8.43,101.6555,3.524,4.746,18.31,0,109.7,13.53,4.29,196.4
"2009-11-25 00:45:00",1446136,6.054,235,5.681,1.106,8.42,101.6603,3.536,4.706,17.87,0,109.7,13.53,4.30,197.0
"2009-11-25 00:45:30",1446137,5.877,235.5,5.851,1.043,8.65,101.6682,3.556,4.793,18.24,0,109.7,13.53,4.32,197.5
"2009-11-25 00:46:00",1446138,5.861,232,5.483,1.1,8.5,101.6762,3.576,4.795,18.15,0,109.7,13.53,4.34,194.0
"2009-11-25 00:46:30",1446139,5.17,229,7.01,1.197,6.973,101.6844,3.597,4.613,17.93,0,109.7,13.53,4.36,191.0
"2009-11-25 00:47:00",1446140,4.346,223.3,4.784,0.9,5.335,101.69,3.612,4.645,18.1,0,109.7,13.53,4.38,185.3
"2009-11-25 00:47:30",1446141,5.757,230.2,5.999,1.118,8.61,101.6926,3.618,4.802,18.28,0,109.7,13.54,4.38,192.2
"2009-11-25 00:48:00",1446142,5.601,228.7,6.5,1.192,8.06,101.6909,3.614,4.792,18.36,0,109.7,13.54,4.38,190.7
"2009-11-25 00:48:30",1446143,6.008,230,5.899,1.069,8.66,101.6897,3.611,4.833,18.39,0,109.7,13.54,4.38,192.0
"2009-11-25 00:49:00",1446144,5.953,230.9,5.705,1.105,8.88,101.6897,3.611,4.84,18.18,0,109.7,13.54,4.38,192.9
"2009-11-25 00:49:30",1446145,5.341,227,6.463,1.241,6.798,101.6915,3.615,4.67,17.4,0,109.7,13.54,4.38,189.0
"2009-11-25 00:50:00",1446146,4.635,222.9,2.566,0.647,5.288,101.6909,3.614,4.693,16.91,0,109.7,13.54,4.38,184.9
"2009-11-25 00:50:30",1446147,6.303,231.4,5.702,1.125,8.77,101.6912,3.615,4.837,17.01,0,109.7,13.54,4.38,193.4
"2009-11-25 00:51:00",1446148,5.741,228.9,6.647,1.251,7.556,101.6912,3.615,4.749,16.87,0,109.7,13.54,4.38,190.9
"2009-11-25 00:51:30",1446149,6.464,233.1,5.212,1.014,9.26,101.6937,3.621,4.891,16.88,0,109.7,13.54,4.39,195.1
"2009-11-25 00:52:00",1446150,6.381,232.7,5.895,1.058,8.81,101.6963,3.628,4.826,16.64,0,109.7,13.54,4.39,194.7
"2009-11-25 00:52:30",1446151,5.65,229.3,6.354,1.229,7.209,101.7025,3.644,4.717,16.47,0,109.7,13.54,4.41,191.3
"2009-11-25 00:53:00",1446152,5.302,228.6,5.757,1.173,7.044,101.7085,3.659,4.807,16.47,0,109.7,13.54,4.42,190.6
"2009-11-25 00:53:30",1446153,5.275,226.8,5.929,1.188,6.613,101.7087,3.66,4.755,16.35,0,109.7,13.54,4.42,188.8
"2009-11-25 00:54:00",1446154,5.772,231.9,6.127,1.202,8.63,101.7087,3.66,4.899,16.7,0,109.7,13.54,4.42,193.9
"2009-11-25 00:54:30",1446155,6.447,234,4.79,1.014,9.05,101.7138,3.673,4.922,16.61,0,109.7,13.54,4.44,196.0
"2009-11-25 00:55:00",1446156,5.967,230.6,6.491,1.197,8.3,101.7226,3.695,4.887,16.17,0,109.7,13.54,4.46,192.6
"2009-11-25 00:55:30",1446157,6.239,231.9,5.718,1.106,8.33,101.7254,3.702,4.837,15.91,0,109.7,13.54,4.47,193.9
"2009-11-25 00:56:00",1446158,5.066,226,5.474,1.071,6.379,101.7274,3.707,4.804,15.83,0,109.7,13.54,4.47,188.0
"2009-11-25 00:56:30",1446159,6.008,229.6,6.384,1.227,7.676,101.7266,3.705,4.776,15.73,0,109.7,13.54,4.47,191.6
"2009-11-25 00:57:00",1446160,5.922,227.1,6.445,1.25,7.582,101.7274,3.707,4.782,15.79,0,109.7,13.54,4.47,189.1
"2009-11-25 00:57:30",1446161,6.608,231.6,5.01,0.943,9.11,101.7271,3.707,4.969,15.97,0,109.7,13.54,4.47,193.6
"2009-11-25 00:58:00",1446162,6.719,231.8,4.464,0.847,9.61,101.7263,3.704,4.953,15.93,0,109.7,13.54,4.47,193.8
"2009-11-25 00:58:30",1446163,6.465,232.9,5.713,1.062,9,101.7269,3.706,4.964,15.85,0,109.7,13.54,4.47,194.9
"2009-11-25 00:59:00",1446164,4.912,225.7,3.741,0.882,5.422,101.7286,3.71,4.801,15.69,0,109.7,13.54,4.48,187.7
"2009-11-25 00:59:30",1446165,5.335,227.6,6.11,1.152,6.401,101.7289,3.711,4.783,15.68,0,109.7,13.54,4.48,189.6
"2009-11-25 01:00:00",1446166,5.856,231.9,7.172,1.24,7.921,101.7365,3.73,4.895,15.6,0,109.7,13.54,4.50,193.9
"2009-11-25 01:00:30",1446167,6.761,237.2,3.639,0.87,9.87,101.7481,3.76,5.016,15.85,0,109.7,13.54,4.53,199.2
"2009-11-25 01:01:00",1446168,6.795,236.3,3.992,0.788,9.84,101.7577,3.785,5.023,15.63,0,109.7,13.54,4.55,198.3
"2009-11-25 01:01:30",1446169,5.877,232.6,6.18,1.198,7.842,101.7614,3.794,4.925,15.51,0,109.7,13.54,4.56,194.6
"2009-11-25 01:02:00",1446170,5.676,230.8,6.211,1.238,6.91,101.7625,3.797,4.904,15.48,0,109.7,13.54,4.56,192.8
"2009-11-25 01:02:30",1446171,5.048,226.8,4.896,0.944,5.799,101.7625,3.797,4.79,15.27,0,109.7,13.54,4.56,188.8
"2009-11-25 01:03:00",1446172,6.245,234.2,6.325,1.214,8.28,101.7622,3.796,4.954,15.42,0,109.7,13.54,4.56,196.2
"2009-11-25 01:03:30",1446173,6.573,234.8,5.622,1.056,9.23,101.7599,3.79,5.063,15.65,0,109.7,13.54,4.56,196.8
"2009-11-25 01:04:00",1446174,7.024,237.2,4.052,0.685,9.98,101.762,3.795,5.091,15.93,0,109.7,13.54,4.56,199.2
"2009-11-25 01:04:30",1446175,6.53,235,5.966,0.994,8.88,101.766,3.806,5.044,15.84,0,109.7,13.54,4.57,197.0
"2009-11-25 01:05:00",1446176,5.535,230.5,6.205,1.231,6.694,101.7761,3.832,4.843,15.46,0,109.7,13.54,4.60,192.5
"2009-11-25 01:05:30",1446177,4.947,228.5,4.733,1.081,5.785,101.7937,3.876,4.825,15.5,0,109.7,13.54,4.64,190.5
"2009-11-25 01:06:00",1446178,5.32,233.1,6.494,1.258,8.31,101.7968,3.884,5.098,16.97,0,109.7,13.54,4.65,195.1
"2009-11-25 01:06:30",1446179,5.843,234.1,6.563,1.176,8.55,101.7982,3.888,5.007,17.45,0,109.7,13.54,4.65,196.1
"2009-11-25 01:07:00",1446180,6.647,236.5,5.324,1.016,9.72,101.7971,3.885,5.144,16.9,0,109.7,13.54,4.65,198.5
"2009-11-25 01:07:30",1446181,6.528,235.3,5.74,1.093,8.95,101.7962,3.883,5.079,16.26,0,109.7,13.54,4.65,197.3
"2009-11-25 01:08:00",1446182,5.56,231.3,6.273,1.216,6.854,101.7979,3.887,5.075,15.95,0,109.7,13.54,4.65,193.3
"2009-11-25 01:08:30",1446183,5.689,231.1,6.617,1.229,6.93,101.8016,3.897,4.95,15.91,0,109.7,13.54,4.66,193.1
"2009-11-25 01:09:00",1446184,5.731,233.2,6.794,1.242,8.05,101.8143,3.929,5.107,16,0,109.7,13.54,4.69,195.2
"2009-11-25 01:09:30",1446185,5.361,229,5.336,1.116,7.129,101.8257,3.958,5.055,15.93,0,109.7,13.55,4.72,191.0
"2009-11-25 01:10:00",1446186,6.619,235.9,5.173,0.848,9.65,101.8302,3.97,5.211,15.89,0,109.7,13.55,4.74,197.9
"2009-11-25 01:10:30",1446187,6.146,233.8,5.942,1.092,9.25,101.8302,3.97,5.164,15.92,0,109.7,13.54,4.74,195.8
"2009-11-25 01:11:00",1446188,5.419,230.8,6.236,1.197,7.613,101.8322,3.975,5.063,15.86,0,109.7,13.54,4.74,192.8
"2009-11-25 01:11:30",1446189,4.485,226.6,5.108,0.949,6.327,101.8325,3.975,5.091,16.01,0,109.7,13.54,4.74,188.6
"2009-11-25 01:12:00",1446190,4.909,227.6,5.309,1.084,6.299,101.8333,3.978,4.942,15.93,0,109.7,13.54,4.74,189.6
"2009-11-25 01:12:30",1446191,5.026,229.2,6.367,1.173,7.552,101.8342,3.98,5.203,16.18,0,109.7,13.55,4.75,191.2
"2009-11-25 01:13:00",1446192,6.23,235,4.842,0.879,10.12,101.8446,4.006,5.249,16.34,0,109.7,13.55,4.77,197.0
"2009-11-25 01:13:30",1446193,6.314,236,3.924,0.705,10.01,101.8547,4.032,5.236,16.47,0,109.7,13.55,4.80,198.0
"2009-11-25 01:14:00",1446194,5.705,231.6,6.237,1.193,8.44,101.8656,4.06,5.178,16.42,0,109.7,13.55,4.83,193.6
"2009-11-25 01:14:30",1446195,5.184,227.6,6.458,1.163,7.117,101.8661,4.061,5.134,16.24,0,109.7,13.55,4.83,189.6
"2009-11-25 01:15:00",1446196,4.169,221.6,0.479,0.095,5.183,101.8658,4.061,5.104,16.09,0,109.7,13.58,4.83,183.6
"2009-11-25 01:15:30",1446197,5.414,226.7,6.258,1.274,7.898,101.865,4.058,5.104,15.99,0,109.7,13.54,4.82,188.7
"2009-11-25 01:16:00",1446198,6.312,229.9,4.396,0.887,10.23,101.8612,4.049,5.303,16.26,0,109.7,13.54,4.82,191.9
"2009-11-25 01:16:30",1446199,6.153,228.2,4.11,0.898,10.03,101.8615,4.05,5.361,16.29,0,109.7,13.54,4.82,190.2
"2009-11-25 01:17:00",1446200,5.327,223.3,6.622,1.217,8.23,101.8683,4.067,5.243,16.16,0,109.7,13.54,4.83,185.3
"2009-11-25 01:17:30",1446201,5.114,221.8,6.343,1.241,7.349,101.8763,4.087,5.207,16.14,0,109.7,13.54,4.85,183.8
"2009-11-25 01:18:00",1446202,3.976,213.2,0.922,0.04,5.21,101.8844,4.108,5.072,16.02,0,109.7,13.57,4.87,175.2
"2009-11-25 01:18:30",1446203,4.133,214,3.429,0.77,5.825,101.8921,4.128,5.086,16.04,0,109.7,13.54,4.89,176.0
"2009-11-25 01:19:00",1446204,6.118,225.1,5.456,1.035,9.72,101.896,4.138,5.348,16.22,0,109.7,13.54,4.90,187.1
"2009-11-25 01:19:30",1446205,6.453,226.2,2.946,0.865,10.53,101.8946,4.134,5.423,16.21,0,109.7,13.54,4.90,188.2
"2009-11-25 01:20:00",1446206,6.357,223.7,5.281,0.923,9.87,101.8946,4.134,5.438,16.13,0,109.7,13.54,4.90,185.7
"2009-11-25 01:20:30",1446207,5.3,216.1,5.386,1.149,6.493,101.8955,4.136,5.189,15.71,0,109.7,13.54,4.90,178.1
"2009-11-25 01:21:00",1446208,5.151,215.1,5.51,1.086,6.559,101.8958,4.137,5.229,15.6,0,109.7,13.54,4.90,177.1
"2009-11-25 01:21:30",1446209,5.399,215.6,5.834,1.13,6.722,101.8952,4.136,5.127,15.43,0,109.7,13.55,4.90,177.6
"2009-11-25 01:22:00",1446210,6.859,224.5,3.124,0.664,10.12,101.902,4.153,5.443,15.63,0,109.7,13.55,4.92,186.5
"2009-11-25 01:22:30",1446211,6.722,225.3,3.305,0.689,10.55,101.9096,4.172,5.459,15.52,0,109.8,13.55,4.94,187.3
"2009-11-25 01:23:00",1446212,6.464,226.8,2.117,0.948,10.04,101.9161,4.189,5.451,15.51,0,109.7,13.55,4.96,188.8
"2009-11-25 01:23:30",1446213,4.827,217,4.444,0.989,5.994,101.9271,4.217,5.255,15.33,0,109.7,13.55,4.98,179.0
"2009-11-25 01:24:00",1446214,5.275,220.5,6.669,1.268,6.974,101.9277,4.219,5.237,15.15,0,109.7,13.55,4.99,182.5
"2009-11-25 01:24:30",1446215,4.934,218.3,6.053,1.134,6.541,101.9288,4.222,5.182,14.95,0,109.7,13.55,4.99,180.3
"2009-11-25 01:25:00",1446216,6.151,226.8,4.359,1.096,9.76,101.9283,4.22,5.495,15.09,0,109.7,13.55,4.99,188.8
"2009-11-25 01:25:30",1446217,6.474,225.9,3.621,0.786,10.49,101.9294,4.223,5.523,15.14,0,109.7,13.55,4.99,187.9
"2009-11-25 01:26:00",1446218,6.565,226.3,3.495,0.749,10.31,101.9286,4.221,5.476,15.16,0,109.7,13.55,4.99,188.3
"2009-11-25 01:26:30",1446219,5.391,219.3,6.609,1.212,7.713,101.9286,4.221,5.366,15.19,0,109.7,13.55,4.99,181.3
"2009-11-25 01:27:00",1446220,4.624,214.2,3.542,0.787,5.588,101.9288,4.222,5.217,15.06,0,109.7,13.55,4.99,176.2
"2009-11-25 01:27:30",1446221,4.234,212.7,0.447,0.039,5.428,101.9291,4.222,5.301,15.17,0,109.7,13.58,4.99,174.7
"2009-11-25 01:28:00",1446222,5.725,221,5.83,1.162,8.93,101.9288,4.222,5.473,15.35,0,109.7,13.55,4.99,183.0
"2009-11-25 01:28:30",1446223,6.278,218.3,5.661,0.862,10.34,101.9288,4.222,5.525,15.4,0,109.7,13.55,4.99,180.3
"2009-11-25 01:29:00",1446224,6.288,219.1,4.078,0.449,10.02,101.9283,4.22,5.451,15.35,0,109.7,13.55,4.99,181.1
"2009-11-25 01:29:30",1446225,4.832,213.7,6.599,1.249,7.608,101.9291,4.222,5.467,15.43,0,109.7,13.55,4.99,175.7
"2009-11-25 01:30:00",1446226,3.975,210.1,5.359,0.98,6.311,101.9291,4.222,5.329,15.33,0,109.7,13.55,4.99,172.1
"2009-11-25 01:30:30",1446227,3.47,206.1,1.523,0.107,5.11,101.9282,4.22,5.25,15.31,0,109.7,13.58,4.99,168.1
"2009-11-25 01:31:00",1446228,4.542,213.6,6.054,1.201,7.846,101.9328,4.232,5.489,15.62,0,109.7,13.55,5.00,175.6
"2009-11-25 01:31:30",1446229,5.38,216.4,5.14,1.059,9.23,101.9311,4.227,5.456,15.66,0,109.7,13.55,4.99,178.4
"2009-11-25 01:32:00",1446230,5.353,214.1,6.559,1.183,8.77,101.9354,4.238,5.469,15.73,0,109.7,13.54,5.01,176.1
"2009-11-25 01:32:30",1446231,5.133,213.2,6.16,1.239,7.94,101.9328,4.232,5.49,15.81,0,109.8,13.54,5.00,175.2
"2009-11-25 01:33:00",1446232,5.25,212.7,6.3,1.218,7.699,101.9328,4.232,5.344,15.7,0,109.7,13.54,5.00,174.7
"2009-11-25 01:33:30",1446233,4.039,208.1,1.021,0.018,4.808,101.9311,4.227,5.241,15.62,0,109.7,13.58,4.99,170.1
"2009-11-25 01:34:00",1446234,5.249,216.7,6.261,1.273,7.441,101.9314,4.228,5.434,15.83,0,109.7,13.54,4.99,178.7
"2009-11-25 01:34:30",1446235,5.779,220.7,5.713,1.115,8.79,101.928,4.219,5.455,16.02,0,109.7,13.54,4.99,182.7
"2009-11-25 01:35:00",1446236,5.536,218.3,6.454,1.258,8.26,101.9274,4.218,5.454,16.16,0,109.7,13.54,4.98,180.3
"2009-11-25 01:35:30",1446237,5.831,220,5.74,1.068,8.81,101.9251,4.212,5.486,16.36,0,109.7,13.54,4.98,182.0
"2009-11-25 01:36:00",1446238,5.18,216.6,6.067,1.248,7.42,101.9257,4.213,5.378,16.45,0,109.7,13.54,4.98,178.6
"2009-11-25 01:36:30",1446239,3.971,210.8,0.315,0.016,4.77,101.9245,4.21,5.251,16.48,0,109.7,13.58,4.98,172.8
"2009-11-25 01:37:00",1446240,5.435,217.9,6.452,1.227,7.769,101.9242,4.21,5.496,16.87,0,109.7,13.55,4.98,179.9
"2009-11-25 01:37:30",1446241,5.773,217.7,6.269,1.115,8.56,101.9268,4.216,5.428,16.91,0,109.7,13.55,4.98,179.7
"2009-11-25 01:38:00",1446242,5.495,217.4,5.953,1.168,8.57,101.9245,4.21,5.479,16.96,0,109.7,13.55,4.98,179.4
"2009-11-25 01:38:30",1446243,5.772,219.4,5.702,1.159,8.43,101.9254,4.213,5.429,16.87,0,109.8,13.55,4.98,181.4
"2009-11-25 01:39:00",1446244,4.785,214.2,6.106,1.145,6.831,101.9242,4.21,5.411,16.9,0,109.8,13.55,4.98,176.2
"2009-11-25 01:39:30",1446245,3.966,209.7,0.363,0.006,4.984,101.9271,4.217,5.22,16.79,0,109.7,13.58,4.98,171.7
"2009-11-25 01:40:00",1446246,5.295,216.8,6.257,1.239,7.528,101.9271,4.217,5.472,17.13,0,109.7,13.55,4.98,178.8
"2009-11-25 01:40:30",1446247,5.723,219.5,5.844,1.132,8.42,101.9249,4.211,5.461,17.33,0,109.7,13.55,4.98,181.5
"2009-11-25 01:41:00",1446248,5.992,221.2,4.653,0.936,8.63,101.9121,4.179,5.343,17.59,0,109.7,13.55,4.95,183.2
"2009-11-25 01:41:30",1446249,5.458,218.1,6.213,1.203,7.463,101.9036,4.157,5.413,17.91,0,109.7,13.55,4.92,180.1
"2009-11-25 01:42:00",1446250,5.736,221.2,6.012,1.097,7.69,101.8951,4.135,5.339,17.96,0,109.7,13.55,4.90,183.2
"2009-11-25 01:42:30",1446251,4.232,212.5,2.289,0.639,5.114,101.8891,4.12,5.194,17.91,0,109.7,13.55,4.89,174.5
"2009-11-25 01:43:00",1446252,5.627,219.9,6.17,1.213,8.07,101.8909,4.125,5.401,18.04,0,109.7,13.55,4.89,181.9
"2009-11-25 01:43:30",1446253,5.812,221.8,5.177,1.103,8.19,101.8911,4.125,5.415,18.12,0,109.7,13.55,4.89,183.8
"2009-11-25 01:44:00",1446254,4.296,214.3,4.842,0.845,5.769,101.8917,4.127,5.286,18.16,0,109.7,13.56,4.89,176.3
"2009-11-25 01:44:30",1446255,5.722,221,5.421,1.152,7.95,101.8895,4.121,5.384,18.31,0,109.7,13.55,4.89,183.0
"2009-11-25 01:45:00",1446256,5.396,219.2,6.367,1.217,7.198,101.8733,4.08,5.207,18.16,0,109.7,13.56,4.85,181.2
"2009-11-25 01:45:30",1446257,4.438,215,5.491,1.014,6.422,101.8598,4.045,5.283,18.3,0,109.7,13.55,4.81,177.0
"2009-11-25 01:46:00",1446258,5.72,221.6,5.442,1.057,8.23,101.8606,4.047,5.335,18.38,0,109.7,13.55,4.81,183.6
"2009-11-25 01:46:30",1446259,5.312,219.4,6.154,1.205,7.264,101.8595,4.044,5.26,18.36,0,109.7,13.55,4.81,181.4
"2009-11-25 01:47:00",1446260,4.242,214.2,4.182,0.941,5.241,101.8575,4.039,5.154,18.31,0,109.7,13.55,4.81,176.2
"2009-11-25 01:47:30",1446261,5.47,221.6,6.122,1.176,8.05,101.8595,4.044,5.296,18.5,0,109.7,13.55,4.81,183.6
"2009-11-25 01:48:00",1446262,5.689,221.8,6.088,1.103,7.843,101.8485,4.016,5.198,18.43,0,109.7,13.55,4.78,183.8